owner,sensor,date,latitude,longitude,vertical_datum,wind_speed,wind_to_direction,wind_speed_of_gust,qcFlag 
TCOON,ioos:station:TCOON:518:1,2013-10-01T00:00:00Z,29.5150,-94.5133,0.0,4.5,165.0,5.9,'11111222,11111222,11111222' 
TCOON,ioos:station:TCOON:518:1,2013-10-01T00:06:00Z,29.5150,-94.5133,0.0,4.4,166.0,5.3,'11111222,11111222,11111222' 
TCOON,ioos:station:TCOON:518:1,2013-10-01T00:12:00Z,29.5150,-94.5133,0.0,3.5,174.0,5.5,'11111222,11111222,11111222' 
TCOON,ioos:station:TCOON:518:1,2013-10-01T00:18:00Z,29.5150,-94.5133,0.0,3.5,172.0,5.3,'11111222,11111222,11111222' 
TCOON,ioos:station:TCOON:518:1,2013-10-01T00:24:00Z,29.5150,-94.5133,0.0,3.8,172.0,5.3,'11111222,11111222,11111222' 
TCOON,ioos:station:TCOON:518:1,2013-10-01T00:30:00Z,29.5150,-94.5133,0.0,2.8,178.0,5.8,'11111222,11111222,11111222' 
TCOON,ioos:station:TCOON:518:1,2013-10-01T00:36:00Z,29.5150,-94.5133,0.0,3.9,180.0,5.4,'11111222,11111222,11111222' 
TCOON,ioos:station:TCOON:518:1,2013-10-01T00:42:00Z,29.5150,-94.5133,0.0,4.3,183.0,6.0,'11111222,11111222,11111222' 
TCOON,ioos:station:TCOON:518:1,2013-10-01T00:48:00Z,29.5150,-94.5133,0.0,2.9,181.0,6.3,'11111222,11111222,11111222' 
TCOON,ioos:station:TCOON:518:1,2013-10-01T00:54:00Z,29.5150,-94.5133,0.0,3.6,180.0,4.6,'1111122,1111122,1111122' 
TCOON,ioos:station:TCOON:518:1,2013-10-01T01:00:00Z,29.5150,-94.5133,0.0,3.1,181.0,5.6,'11111222,11111222,11111222' 
TCOON,ioos:station:TCOON:518:1,2013-10-01T01:06:00Z,29.5150,-94.5133,0.0,3.1,180.0,4.6,'11111222,11111222,11111222' 
TCOON,ioos:station:TCOON:518:1,2013-10-01T01:12:00Z,29.5150,-94.5133,0.0,3.3,171.0,4.8,'11111222,11111222,11111222' 
TCOON,ioos:station:TCOON:518:1,2013-10-01T01:18:00Z,29.5150,-94.5133,0.0,2.6,179.0,4.6,'11111222,11111222,11111222' 
TCOON,ioos:station:TCOON:518:1,2013-10-01T01:24:00Z,29.5150,-94.5133,0.0,3.1,180.0,4.1,'1111122,1111122,1111122' 
TCOON,ioos:station:TCOON:518:1,2013-10-01T01:30:00Z,29.5150,-94.5133,0.0,3.3,170.0,4.5,'11111222,11111222,11111222' 
TCOON,ioos:station:TCOON:518:1,2013-10-01T01:36:00Z,29.5150,-94.5133,0.0,3.2,172.0,4.7,'11111222,11111222,11111222' 
TCOON,ioos:station:TCOON:518:1,2013-10-01T01:42:00Z,29.5150,-94.5133,0.0,2.8,172.0,4.2,'11111222,11111222,11111222' 
TCOON,ioos:station:TCOON:518:1,2013-10-01T01:48:00Z,29.5150,-94.5133,0.0,3.6,172.0,5.3,'11111222,11111222,11111222' 
TCOON,ioos:station:TCOON:518:1,2013-10-01T01:54:00Z,29.5150,-94.5133,0.0,3.0,175.0,5.2,'11111222,11111222,11111222' 
TCOON,ioos:station:TCOON:518:1,2013-10-01T02:00:00Z,29.5150,-94.5133,0.0,2.8,171.0,4.9,'11111222,11111222,11111222' 
TCOON,ioos:station:TCOON:518:1,2013-10-01T02:06:00Z,29.5150,-94.5133,0.0,3.2,167.0,3.9,'11111222,11111222,11111222' 
TCOON,ioos:station:TCOON:518:1,2013-10-01T02:12:00Z,29.5150,-94.5133,0.0,2.9,166.0,3.7,'11111222,11111222,11111222' 
TCOON,ioos:station:TCOON:518:1,2013-10-01T02:18:00Z,29.5150,-94.5133,0.0,2.8,171.0,4.3,'11111222,11111222,11111222' 
TCOON,ioos:station:TCOON:518:1,2013-10-01T02:24:00Z,29.5150,-94.5133,0.0,3.3,164.0,4.8,'11111222,11111222,11111222' 
TCOON,ioos:station:TCOON:518:1,2013-10-01T02:30:00Z,29.5150,-94.5133,0.0,3.1,170.0,4.6,'11111222,11111222,11111222' 
TCOON,ioos:station:TCOON:518:1,2013-10-01T02:36:00Z,29.5150,-94.5133,0.0,4.1,160.0,4.6,'1111122,1111122,1111122' 
TCOON,ioos:station:TCOON:518:1,2013-10-01T02:42:00Z,29.5150,-94.5133,0.0,3.6,154.0,4.8,'11111222,11111222,11111222' 
TCOON,ioos:station:TCOON:518:1,2013-10-01T02:48:00Z,29.5150,-94.5133,0.0,3.4,160.0,5.0,'11111222,11111222,11111222' 
TCOON,ioos:station:TCOON:518:1,2013-10-01T02:54:00Z,29.5150,-94.5133,0.0,3.1,170.0,5.1,'1111122,1111122,1111122' 
TCOON,ioos:station:TCOON:518:1,2013-10-01T03:00:00Z,29.5150,-94.5133,0.0,4.1,158.0,5.5,'11111222,11111222,11111222' 
TCOON,ioos:station:TCOON:518:1,2013-10-01T03:06:00Z,29.5150,-94.5133,0.0,3.6,161.0,5.2,'11111222,11111222,11111222' 
TCOON,ioos:station:TCOON:518:1,2013-10-01T03:12:00Z,29.5150,-94.5133,0.0,3.1,164.0,4.3,'11111222,11111222,11111222' 
TCOON,ioos:station:TCOON:518:1,2013-10-01T03:18:00Z,29.5150,-94.5133,0.0,4.0,159.0,4.6,'11111222,11111222,11111222' 
TCOON,ioos:station:TCOON:518:1,2013-10-01T03:24:00Z,29.5150,-94.5133,0.0,3.0,166.0,4.4,'11111222,11111222,11111222' 
TCOON,ioos:station:TCOON:518:1,2013-10-01T03:30:00Z,29.5150,-94.5133,0.0,3.1,170.0,4.6,'1111122,1111122,1111122' 
TCOON,ioos:station:TCOON:518:1,2013-10-01T03:36:00Z,29.5150,-94.5133,0.0,3.5,163.0,4.2,'11111222,11111222,11111222' 
TCOON,ioos:station:TCOON:518:1,2013-10-01T03:42:00Z,29.5150,-94.5133,0.0,2.5,176.0,3.6,'11111222,11111222,11111222' 
TCOON,ioos:station:TCOON:518:1,2013-10-01T03:48:00Z,29.5150,-94.5133,0.0,2.7,174.0,3.7,'11111222,11111222,11111222' 
TCOON,ioos:station:TCOON:518:1,2013-10-01T03:54:00Z,29.5150,-94.5133,0.0,2.4,172.0,3.5,'11111222,11111222,11111222' 
TCOON,ioos:station:TCOON:518:1,2013-10-01T04:00:00Z,29.5150,-94.5133,0.0,2.6,171.0,4.4,'11111222,11111222,11111222' 
TCOON,ioos:station:TCOON:518:1,2013-10-01T04:06:00Z,29.5150,-94.5133,0.0,2.7,169.0,3.8,'11111222,11111222,11111222' 
TCOON,ioos:station:TCOON:518:1,2013-10-01T04:12:00Z,29.5150,-94.5133,0.0,3.2,175.0,4.3,'11111222,11111222,11111222' 
TCOON,ioos:station:TCOON:518:1,2013-10-01T04:18:00Z,29.5150,-94.5133,0.0,2.8,174.0,4.4,'11111222,11111222,11111222' 
TCOON,ioos:station:TCOON:518:1,2013-10-01T04:24:00Z,29.5150,-94.5133,0.0,3.0,176.0,4.3,'11111222,11111222,11111222' 
TCOON,ioos:station:TCOON:518:1,2013-10-01T04:30:00Z,29.5150,-94.5133,0.0,2.1,180.0,4.1,'1111122,1111122,1111122' 
TCOON,ioos:station:TCOON:518:1,2013-10-01T04:36:00Z,29.5150,-94.5133,0.0,2.6,175.0,4.2,'11111222,11111222,11111222' 
TCOON,ioos:station:TCOON:518:1,2013-10-01T04:42:00Z,29.5150,-94.5133,0.0,2.9,175.0,3.8,'11111222,11111222,11111222' 
TCOON,ioos:station:TCOON:518:1,2013-10-01T04:48:00Z,29.5150,-94.5133,0.0,3.1,170.0,4.1,'1111122,1111122,1111122' 
TCOON,ioos:station:TCOON:518:1,2013-10-01T04:54:00Z,29.5150,-94.5133,0.0,2.6,177.0,4.6,'11111222,11111222,11111222' 
TCOON,ioos:station:TCOON:518:1,2013-10-01T05:00:00Z,29.5150,-94.5133,0.0,3.4,169.0,4.4,'11111222,11111222,11111222' 
TCOON,ioos:station:TCOON:518:1,2013-10-01T05:06:00Z,29.5150,-94.5133,0.0,2.4,167.0,4.1,'11111222,11111222,11111222' 
TCOON,ioos:station:TCOON:518:1,2013-10-01T05:12:00Z,29.5150,-94.5133,0.0,3.0,160.0,4.0,'11111222,11111222,11111222' 
TCOON,ioos:station:TCOON:518:1,2013-10-01T05:18:00Z,29.5150,-94.5133,0.0,2.1,170.0,3.6,'11111222,11111222,11111222' 
TCOON,ioos:station:TCOON:518:1,2013-10-01T05:24:00Z,29.5150,-94.5133,0.0,2.4,164.0,3.3,'11111222,11111222,11111222' 
TCOON,ioos:station:TCOON:518:1,2013-10-01T05:30:00Z,29.5150,-94.5133,0.0,2.0,164.0,3.3,'11111222,11111222,11111222' 
TCOON,ioos:station:TCOON:518:1,2013-10-01T05:36:00Z,29.5150,-94.5133,0.0,2.7,159.0,3.3,'11111222,11111222,11111222' 
TCOON,ioos:station:TCOON:518:1,2013-10-01T05:42:00Z,29.5150,-94.5133,0.0,2.2,161.0,2.9,'11111222,11111222,11111222' 
TCOON,ioos:station:TCOON:518:1,2013-10-01T05:48:00Z,29.5150,-94.5133,0.0,2.8,161.0,3.4,'11111222,11111222,11111222' 
TCOON,ioos:station:TCOON:518:1,2013-10-01T05:54:00Z,29.5150,-94.5133,0.0,2.8,159.0,3.5,'11111222,11111222,11111222' 
TCOON,ioos:station:TCOON:518:1,2013-10-01T06:00:00Z,29.5150,-94.5133,0.0,2.5,144.0,3.3,'11111222,11111222,11111222' 
TCOON,ioos:station:TCOON:518:1,2013-10-01T06:06:00Z,29.5150,-94.5133,0.0,6.7,140.0,7.7,'1111122,1111122,1111122' 
TCOON,ioos:station:TCOON:518:1,2013-10-01T06:12:00Z,29.5150,-94.5133,0.0,7.0,129.0,8.9,'11111222,11111222,11111222' 
TCOON,ioos:station:TCOON:518:1,2013-10-01T06:18:00Z,29.5150,-94.5133,0.0,6.6,117.0,9.5,'11111222,11111222,11111222' 
TCOON,ioos:station:TCOON:518:1,2013-10-01T06:24:00Z,29.5150,-94.5133,0.0,4.9,124.0,7.8,'11111222,11111222,11111222' 
TCOON,ioos:station:TCOON:518:1,2013-10-01T06:30:00Z,29.5150,-94.5133,0.0,4.1,150.0,6.2,'1111122,1111122,1111122' 
TCOON,ioos:station:TCOON:518:1,2013-10-01T06:36:00Z,29.5150,-94.5133,0.0,3.4,147.0,4.6,'11111222,11111222,11111222' 
TCOON,ioos:station:TCOON:518:1,2013-10-01T06:42:00Z,29.5150,-94.5133,0.0,2.9,144.0,4.1,'11111222,11111222,11111222' 
TCOON,ioos:station:TCOON:518:1,2013-10-01T06:48:00Z,29.5150,-94.5133,0.0,2.6,140.0,3.1,'1111122,1111122,1111122' 
TCOON,ioos:station:TCOON:518:1,2013-10-01T06:54:00Z,29.5150,-94.5133,0.0,1.7,145.0,2.7,'11111222,11111222,11111222' 
TCOON,ioos:station:TCOON:518:1,2013-10-01T07:00:00Z,29.5150,-94.5133,0.0,1.8,144.0,2.2,'11111222,11111222,11111222' 
TCOON,ioos:station:TCOON:518:1,2013-10-01T07:06:00Z,29.5150,-94.5133,0.0,1.8,147.0,3.2,'11111222,11111222,11111222' 
TCOON,ioos:station:TCOON:518:1,2013-10-01T07:12:00Z,29.5150,-94.5133,0.0,3.3,169.0,4.9,'11111222,11111222,11111222' 
TCOON,ioos:station:TCOON:518:1,2013-10-01T07:18:00Z,29.5150,-94.5133,0.0,2.8,170.0,4.9,'11111222,11111222,11111222' 
TCOON,ioos:station:TCOON:518:1,2013-10-01T07:24:00Z,29.5150,-94.5133,0.0,4.4,162.0,6.1,'11111222,11111222,11111222' 
TCOON,ioos:station:TCOON:518:1,2013-10-01T07:30:00Z,29.5150,-94.5133,0.0,3.6,190.0,5.1,'1111122,1111122,1111122' 
TCOON,ioos:station:TCOON:518:1,2013-10-01T07:36:00Z,29.5150,-94.5133,0.0,2.6,190.0,5.0,'11111222,11111222,11111222' 
TCOON,ioos:station:TCOON:518:1,2013-10-01T07:42:00Z,29.5150,-94.5133,0.0,3.4,194.0,4.4,'11111222,11111222,11111222' 
TCOON,ioos:station:TCOON:518:1,2013-10-01T07:48:00Z,29.5150,-94.5133,0.0,3.1,190.0,5.7,'1111122,1111122,1111122' 
TCOON,ioos:station:TCOON:518:1,2013-10-01T07:54:00Z,29.5150,-94.5133,0.0,2.8,183.0,3.8,'11111222,11111222,11111222' 
TCOON,ioos:station:TCOON:518:1,2013-10-01T08:00:00Z,29.5150,-94.5133,0.0,2.8,172.0,4.6,'11111222,11111222,11111222' 
TCOON,ioos:station:TCOON:518:1,2013-10-01T08:06:00Z,29.5150,-94.5133,0.0,2.4,170.0,3.7,'11111222,11111222,11111222' 
TCOON,ioos:station:TCOON:518:1,2013-10-01T08:12:00Z,29.5150,-94.5133,0.0,3.3,165.0,4.7,'11111222,11111222,11111222' 
TCOON,ioos:station:TCOON:518:1,2013-10-01T08:18:00Z,29.5150,-94.5133,0.0,3.5,161.0,4.9,'11111222,11111222,11111222' 
TCOON,ioos:station:TCOON:518:1,2013-10-01T08:24:00Z,29.5150,-94.5133,0.0,2.1,178.0,4.6,'11111222,11111222,11111222' 
TCOON,ioos:station:TCOON:518:1,2013-10-01T08:30:00Z,29.5150,-94.5133,0.0,1.5,190.0,3.1,'1111122,1111122,1111122' 
TCOON,ioos:station:TCOON:518:1,2013-10-01T08:36:00Z,29.5150,-94.5133,0.0,1.8,185.0,2.9,'11111222,11111222,11111222' 
TCOON,ioos:station:TCOON:518:1,2013-10-01T08:42:00Z,29.5150,-94.5133,0.0,2.2,176.0,3.3,'11111222,11111222,11111222' 
TCOON,ioos:station:TCOON:518:1,2013-10-01T08:48:00Z,29.5150,-94.5133,0.0,2.5,183.0,3.6,'11111222,11111222,11111222' 
TCOON,ioos:station:TCOON:518:1,2013-10-01T08:54:00Z,29.5150,-94.5133,0.0,2.1,200.0,5.7,'1111122,1111122,1111122' 
TCOON,ioos:station:TCOON:518:1,2013-10-01T09:00:00Z,29.5150,-94.5133,0.0,2.5,203.0,4.7,'11111222,11111222,11111222' 
TCOON,ioos:station:TCOON:518:1,2013-10-01T09:06:00Z,29.5150,-94.5133,0.0,2.3,199.0,3.8,'11111222,11111222,11111222' 
TCOON,ioos:station:TCOON:518:1,2013-10-01T09:12:00Z,29.5150,-94.5133,0.0,4.4,190.0,8.2,'11111222,11111222,11111222' 
TCOON,ioos:station:TCOON:518:1,2013-10-01T09:18:00Z,29.5150,-94.5133,0.0,6.4,168.0,9.6,'11111222,11111222,11111222' 
TCOON,ioos:station:TCOON:518:1,2013-10-01T09:24:00Z,29.5150,-94.5133,0.0,6.4,178.0,9.6,'11111222,11111222,11111222' 
TCOON,ioos:station:TCOON:518:1,2013-10-01T09:30:00Z,29.5150,-94.5133,0.0,4.3,182.0,7.6,'11111222,11111222,11111222' 
TCOON,ioos:station:TCOON:518:1,2013-10-01T09:36:00Z,29.5150,-94.5133,0.0,3.6,180.0,6.2,'1111122,1111122,1111122' 
TCOON,ioos:station:TCOON:518:1,2013-10-01T09:42:00Z,29.5150,-94.5133,0.0,4.1,176.0,6.0,'11111222,11111222,11111222' 
TCOON,ioos:station:TCOON:518:1,2013-10-01T09:48:00Z,29.5150,-94.5133,0.0,3.7,190.0,5.9,'11111222,11111222,11111222' 
TCOON,ioos:station:TCOON:518:1,2013-10-01T09:54:00Z,29.5150,-94.5133,0.0,3.4,170.0,4.6,'11111222,11111222,11111222' 
TCOON,ioos:station:TCOON:518:1,2013-10-01T10:00:00Z,29.5150,-94.5133,0.0,3.1,170.0,5.1,'1111122,1111122,1111122' 
TCOON,ioos:station:TCOON:518:1,2013-10-01T10:06:00Z,29.5150,-94.5133,0.0,4.4,148.0,5.2,'11111222,11111222,11111222' 
TCOON,ioos:station:TCOON:518:1,2013-10-01T10:12:00Z,29.5150,-94.5133,0.0,3.9,151.0,5.1,'11111222,11111222,11111222' 
TCOON,ioos:station:TCOON:518:1,2013-10-01T10:18:00Z,29.5150,-94.5133,0.0,2.5,171.0,4.3,'11111222,11111222,11111222' 
TCOON,ioos:station:TCOON:518:1,2013-10-01T10:24:00Z,29.5150,-94.5133,0.0,3.3,158.0,4.0,'11111222,11111222,11111222' 
TCOON,ioos:station:TCOON:518:1,2013-10-01T10:30:00Z,29.5150,-94.5133,0.0,2.9,253.0,4.2,'11111222,11111222,11111222' 
TCOON,ioos:station:TCOON:518:1,2013-10-01T10:36:00Z,29.5150,-94.5133,0.0,4.4,247.0,5.9,'11111222,11111222,11111222' 
TCOON,ioos:station:TCOON:518:1,2013-10-01T10:42:00Z,29.5150,-94.5133,0.0,5.4,244.0,6.9,'11111222,11111222,11111222' 
TCOON,ioos:station:TCOON:518:1,2013-10-01T10:48:00Z,29.5150,-94.5133,0.0,5.7,240.0,7.7,'1111122,1111122,1111122' 
TCOON,ioos:station:TCOON:518:1,2013-10-01T10:54:00Z,29.5150,-94.5133,0.0,1.1,264.0,8.1,'11111222,11111222,11111222' 
TCOON,ioos:station:TCOON:518:1,2013-10-01T11:00:00Z,29.5150,-94.5133,0.0,2.9,136.0,3.8,'11111222,11111222,11111222' 
TCOON,ioos:station:TCOON:518:1,2013-10-01T11:06:00Z,29.5150,-94.5133,0.0,4.2,158.0,5.4,'11111222,11111222,11111222' 
TCOON,ioos:station:TCOON:518:1,2013-10-01T11:12:00Z,29.5150,-94.5133,0.0,8.6,129.0,9.5,'11111222,11111222,11111222' 
TCOON,ioos:station:TCOON:518:1,2013-10-01T11:18:00Z,29.5150,-94.5133,0.0,5.2,149.0,9.8,'11111222,11111222,11111222' 
TCOON,ioos:station:TCOON:518:1,2013-10-01T11:24:00Z,29.5150,-94.5133,0.0,2.6,130.0,3.1,'1111122,1111122,1111122' 
TCOON,ioos:station:TCOON:518:1,2013-10-01T11:30:00Z,29.5150,-94.5133,0.0,2.3,135.0,2.8,'11111222,11111222,11111222' 
TCOON,ioos:station:TCOON:518:1,2013-10-01T11:36:00Z,29.5150,-94.5133,0.0,3.6,112.0,4.8,'11111222,11111222,11111222' 
TCOON,ioos:station:TCOON:518:1,2013-10-01T11:42:00Z,29.5150,-94.5133,0.0,4.6,127.0,6.2,'11111222,11111222,11111222' 
TCOON,ioos:station:TCOON:518:1,2013-10-01T11:48:00Z,29.5150,-94.5133,0.0,4.1,150.0,5.7,'1111122,1111122,1111122' 
TCOON,ioos:station:TCOON:518:1,2013-10-01T11:54:00Z,29.5150,-94.5133,0.0,3.6,154.0,4.7,'11111222,11111222,11111222' 
TCOON,ioos:station:TCOON:518:1,2013-10-01T12:00:00Z,29.5150,-94.5133,0.0,4.1,175.0,6.2,'11111222,11111222,11111222' 
TCOON,ioos:station:TCOON:518:1,2013-10-01T12:06:00Z,29.5150,-94.5133,0.0,4.0,165.0,5.7,'11111222,11111222,11111222' 
TCOON,ioos:station:TCOON:518:1,2013-10-01T12:12:00Z,29.5150,-94.5133,0.0,2.5,177.0,4.3,'11111222,11111222,11111222' 
TCOON,ioos:station:TCOON:518:1,2013-10-01T12:18:00Z,29.5150,-94.5133,0.0,0.9,221.0,3.2,'11111222,11111222,11111222' 
TCOON,ioos:station:TCOON:518:1,2013-10-01T12:24:00Z,29.5150,-94.5133,0.0,1.9,198.0,2.9,'11111222,11111222,11111222' 
TCOON,ioos:station:TCOON:518:1,2013-10-01T12:30:00Z,29.5150,-94.5133,0.0,1.0,180.0,3.6,'1111122,1111122,1111122' 
TCOON,ioos:station:TCOON:518:1,2013-10-01T12:36:00Z,29.5150,-94.5133,0.0,2.1,207.0,3.1,'11111222,11111222,11111222' 
TCOON,ioos:station:TCOON:518:1,2013-10-01T12:42:00Z,29.5150,-94.5133,0.0,4.0,203.0,7.8,'11111222,11111222,11111222' 
TCOON,ioos:station:TCOON:518:1,2013-10-01T12:48:00Z,29.5150,-94.5133,0.0,5.7,230.0,9.6,'11111222,11111222,11111222' 
TCOON,ioos:station:TCOON:518:1,2013-10-01T12:54:00Z,29.5150,-94.5133,0.0,2.1,190.0,6.7,'1111122,1111122,1111122' 
TCOON,ioos:station:TCOON:518:1,2013-10-01T13:00:00Z,29.5150,-94.5133,0.0,1.8,196.0,3.9,'11111222,11111222,11111222' 
TCOON,ioos:station:TCOON:518:1,2013-10-01T13:06:00Z,29.5150,-94.5133,0.0,1.5,167.0,1.9,'11111222,11111222,11111222' 
TCOON,ioos:station:TCOON:518:1,2013-10-01T13:12:00Z,29.5150,-94.5133,0.0,1.5,189.0,1.9,'11111222,11111222,11111222' 
TCOON,ioos:station:TCOON:518:1,2013-10-01T13:18:00Z,29.5150,-94.5133,0.0,1.5,183.0,2.8,'11111222,11111222,11111222' 
TCOON,ioos:station:TCOON:518:1,2013-10-01T13:24:00Z,29.5150,-94.5133,0.0,1.5,190.0,2.6,'1111122,1111122,1111122' 
TCOON,ioos:station:TCOON:518:1,2013-10-01T13:30:00Z,29.5150,-94.5133,0.0,0.2,185.0,1.7,'11111222,11111222,11111222' 
TCOON,ioos:station:TCOON:518:1,2013-10-01T13:36:00Z,29.5150,-94.5133,0.0,0.9,50.0,1.6,'11111222,11111222,11111222' 
TCOON,ioos:station:TCOON:518:1,2013-10-01T13:42:00Z,29.5150,-94.5133,0.0,1.0,56.0,1.8,'11111222,11111222,11111222' 
TCOON,ioos:station:TCOON:518:1,2013-10-01T13:48:00Z,29.5150,-94.5133,0.0,0.8,61.0,1.4,'11111222,11111222,11111222' 
TCOON,ioos:station:TCOON:518:1,2013-10-01T13:54:00Z,29.5150,-94.5133,0.0,2.6,58.0,3.9,'11111222,11111222,11111222' 
TCOON,ioos:station:TCOON:518:1,2013-10-01T14:00:00Z,29.5150,-94.5133,0.0,3.1,45.0,4.0,'11111222,11111222,11111222' 
TCOON,ioos:station:TCOON:518:1,2013-10-01T14:06:00Z,29.5150,-94.5133,0.0,2.7,50.0,3.4,'11111222,11111222,11111222' 
TCOON,ioos:station:TCOON:518:1,2013-10-01T14:12:00Z,29.5150,-94.5133,0.0,6.0,52.0,6.8,'11111222,11111222,11111222' 
TCOON,ioos:station:TCOON:518:1,2013-10-01T14:18:00Z,29.5150,-94.5133,0.0,5.7,50.0,6.5,'11111222,11111222,11111222' 
TCOON,ioos:station:TCOON:518:1,2013-10-01T14:24:00Z,29.5150,-94.5133,0.0,4.1,60.0,5.7,'1111122,1111122,1111122' 
TCOON,ioos:station:TCOON:518:1,2013-10-01T14:30:00Z,29.5150,-94.5133,0.0,4.4,57.0,4.9,'11111222,11111222,11111222' 
TCOON,ioos:station:TCOON:518:1,2013-10-01T14:36:00Z,29.5150,-94.5133,0.0,2.6,44.0,4.2,'11111222,11111222,11111222' 
TCOON,ioos:station:TCOON:518:1,2013-10-01T14:42:00Z,29.5150,-94.5133,0.0,2.2,357.0,3.3,'11111222,11111222,11111222' 
TCOON,ioos:station:TCOON:518:1,2013-10-01T14:48:00Z,29.5150,-94.5133,0.0,1.0,47.0,3.5,'11111222,11111222,11111222' 
TCOON,ioos:station:TCOON:518:1,2013-10-01T14:54:00Z,29.5150,-94.5133,0.0,0.9,39.0,1.7,'11111222,11111222,11111222' 
TCOON,ioos:station:TCOON:518:1,2013-10-01T15:00:00Z,29.5150,-94.5133,0.0,3.6,140.0,5.1,'1111122,1111122,1111122' 
TCOON,ioos:station:TCOON:518:1,2013-10-01T15:06:00Z,29.5150,-94.5133,0.0,5.8,131.0,6.8,'11111222,11111222,11111222' 
TCOON,ioos:station:TCOON:518:1,2013-10-01T15:12:00Z,29.5150,-94.5133,0.0,5.5,139.0,7.2,'11111222,11111222,11111222' 
TCOON,ioos:station:TCOON:518:1,2013-10-01T15:18:00Z,29.5150,-94.5133,0.0,5.1,143.0,7.0,'11111222,11111222,11111222' 
TCOON,ioos:station:TCOON:518:1,2013-10-01T15:24:00Z,29.5150,-94.5133,0.0,5.7,140.0,6.7,'11111222,11111222,11111222' 
TCOON,ioos:station:TCOON:518:1,2013-10-01T15:30:00Z,29.5150,-94.5133,0.0,5.4,146.0,6.8,'11111222,11111222,11111222' 
TCOON,ioos:station:TCOON:518:1,2013-10-01T15:36:00Z,29.5150,-94.5133,0.0,4.9,148.0,6.8,'11111222,11111222,11111222' 
TCOON,ioos:station:TCOON:518:1,2013-10-01T15:42:00Z,29.5150,-94.5133,0.0,5.7,145.0,6.7,'11111222,11111222,11111222' 
TCOON,ioos:station:TCOON:518:1,2013-10-01T15:48:00Z,29.5150,-94.5133,0.0,4.1,152.0,6.4,'11111222,11111222,11111222' 
TCOON,ioos:station:TCOON:518:1,2013-10-01T15:54:00Z,29.5150,-94.5133,0.0,3.4,152.0,5.8,'11111222,11111222,11111222' 
TCOON,ioos:station:TCOON:518:1,2013-10-01T16:00:00Z,29.5150,-94.5133,0.0,4.9,140.0,6.0,'11111222,11111222,11111222' 
TCOON,ioos:station:TCOON:518:1,2013-10-01T16:06:00Z,29.5150,-94.5133,0.0,5.1,150.0,6.7,'1111122,1111122,1111122' 
TCOON,ioos:station:TCOON:518:1,2013-10-01T16:12:00Z,29.5150,-94.5133,0.0,4.7,141.0,6.1,'11111222,11111222,11111222' 
TCOON,ioos:station:TCOON:518:1,2013-10-01T16:18:00Z,29.5150,-94.5133,0.0,4.8,146.0,6.2,'11111222,11111222,11111222' 
TCOON,ioos:station:TCOON:518:1,2013-10-01T16:24:00Z,29.5150,-94.5133,0.0,5.1,150.0,6.2,'1111122,1111122,1111122' 
TCOON,ioos:station:TCOON:518:1,2013-10-01T16:30:00Z,29.5150,-94.5133,0.0,4.7,145.0,6.2,'11111222,11111222,11111222' 
TCOON,ioos:station:TCOON:518:1,2013-10-01T16:36:00Z,29.5150,-94.5133,0.0,4.3,142.0,5.8,'11111222,11111222,11111222' 
TCOON,ioos:station:TCOON:518:1,2013-10-01T16:42:00Z,29.5150,-94.5133,0.0,3.7,152.0,4.6,'11111222,11111222,11111222' 
TCOON,ioos:station:TCOON:518:1,2013-10-01T16:48:00Z,29.5150,-94.5133,0.0,3.1,180.0,4.6,'1111122,1111122,1111122' 
TCOON,ioos:station:TCOON:518:1,2013-10-01T16:54:00Z,29.5150,-94.5133,0.0,3.7,194.0,5.5,'11111222,11111222,11111222' 
TCOON,ioos:station:TCOON:518:1,2013-10-01T17:00:00Z,29.5150,-94.5133,0.0,2.9,188.0,5.2,'11111222,11111222,11111222' 
TCOON,ioos:station:TCOON:518:1,2013-10-01T17:06:00Z,29.5150,-94.5133,0.0,3.8,177.0,5.6,'11111222,11111222,11111222' 
TCOON,ioos:station:TCOON:518:1,2013-10-01T17:12:00Z,29.5150,-94.5133,0.0,4.0,179.0,6.2,'11111222,11111222,11111222' 
TCOON,ioos:station:TCOON:518:1,2013-10-01T17:18:00Z,29.5150,-94.5133,0.0,4.3,183.0,6.2,'11111222,11111222,11111222' 
TCOON,ioos:station:TCOON:518:1,2013-10-01T17:24:00Z,29.5150,-94.5133,0.0,3.9,181.0,6.4,'11111222,11111222,11111222' 
TCOON,ioos:station:TCOON:518:1,2013-10-01T17:30:00Z,29.5150,-94.5133,0.0,4.6,172.0,7.4,'11111222,11111222,11111222' 
TCOON,ioos:station:TCOON:518:1,2013-10-01T17:36:00Z,29.5150,-94.5133,0.0,5.1,170.0,7.7,'1111122,1111122,1111122' 
TCOON,ioos:station:TCOON:518:1,2013-10-01T17:42:00Z,29.5150,-94.5133,0.0,5.5,162.0,7.5,'11111222,11111222,11111222' 
TCOON,ioos:station:TCOON:518:1,2013-10-01T17:48:00Z,29.5150,-94.5133,0.0,4.8,171.0,7.1,'11111222,11111222,11111222' 
TCOON,ioos:station:TCOON:518:1,2013-10-01T17:54:00Z,29.5150,-94.5133,0.0,3.6,180.0,6.7,'1111122,1111122,1111122' 
TCOON,ioos:station:TCOON:518:1,2013-10-01T18:00:00Z,29.5150,-94.5133,0.0,4.7,244.0,6.4,'11111222,11111222,11111222' 
TCOON,ioos:station:TCOON:518:1,2013-10-01T18:06:00Z,29.5150,-94.5133,0.0,7.3,239.0,10.6,'11111222,11111222,11111222' 
TCOON,ioos:station:TCOON:518:1,2013-10-01T18:12:00Z,29.5150,-94.5133,0.0,5.9,240.0,9.3,'11111222,11111222,11111222' 
TCOON,ioos:station:TCOON:518:1,2013-10-01T18:18:00Z,29.5150,-94.5133,0.0,4.6,238.0,8.2,'11111222,11111222,11111222' 
TCOON,ioos:station:TCOON:518:1,2013-10-01T18:24:00Z,29.5150,-94.5133,0.0,3.5,227.0,6.3,'11111222,11111222,11111222' 
TCOON,ioos:station:TCOON:518:1,2013-10-01T18:30:00Z,29.5150,-94.5133,0.0,3.6,230.0,5.1,'1111122,1111122,1111122' 
TCOON,ioos:station:TCOON:518:1,2013-10-01T18:36:00Z,29.5150,-94.5133,0.0,2.9,219.0,4.8,'11111222,11111222,11111222' 
TCOON,ioos:station:TCOON:518:1,2013-10-01T18:42:00Z,29.5150,-94.5133,0.0,1.6,168.0,3.1,'11111222,11111222,11111222' 
TCOON,ioos:station:TCOON:518:1,2013-10-01T18:48:00Z,29.5150,-94.5133,0.0,4.8,146.0,5.4,'11111222,11111222,11111222' 
TCOON,ioos:station:TCOON:518:1,2013-10-01T18:54:00Z,29.5150,-94.5133,0.0,5.6,134.0,6.6,'11111222,11111222,11111222' 
TCOON,ioos:station:TCOON:518:1,2013-10-01T19:00:00Z,29.5150,-94.5133,0.0,4.8,119.0,6.5,'11111222,11111222,11111222' 
TCOON,ioos:station:TCOON:518:1,2013-10-01T19:06:00Z,29.5150,-94.5133,0.0,3.6,102.0,5.3,'11111222,11111222,11111222' 
TCOON,ioos:station:TCOON:518:1,2013-10-01T19:12:00Z,29.5150,-94.5133,0.0,3.0,117.0,4.1,'11111222,11111222,11111222' 
TCOON,ioos:station:TCOON:518:1,2013-10-01T19:18:00Z,29.5150,-94.5133,0.0,3.6,137.0,4.9,'11111222,11111222,11111222' 
TCOON,ioos:station:TCOON:518:1,2013-10-01T19:24:00Z,29.5150,-94.5133,0.0,3.6,130.0,4.6,'1111122,1111122,1111122' 
TCOON,ioos:station:TCOON:518:1,2013-10-01T19:30:00Z,29.5150,-94.5133,0.0,1.6,164.0,3.8,'11111222,11111222,11111222' 
TCOON,ioos:station:TCOON:518:1,2013-10-01T19:36:00Z,29.5150,-94.5133,0.0,2.9,159.0,4.3,'11111222,11111222,11111222' 
TCOON,ioos:station:TCOON:518:1,2013-10-01T19:42:00Z,29.5150,-94.5133,0.0,4.1,127.0,5.1,'11111222,11111222,11111222' 
TCOON,ioos:station:TCOON:518:1,2013-10-01T19:48:00Z,29.5150,-94.5133,0.0,5.5,136.0,6.2,'11111222,11111222,11111222' 
TCOON,ioos:station:TCOON:518:1,2013-10-01T19:54:00Z,29.5150,-94.5133,0.0,5.2,134.0,6.1,'11111222,11111222,11111222' 
TCOON,ioos:station:TCOON:518:1,2013-10-01T20:00:00Z,29.5150,-94.5133,0.0,4.6,120.0,5.7,'1111122,1111122,1111122' 
TCOON,ioos:station:TCOON:518:1,2013-10-01T20:06:00Z,29.5150,-94.5133,0.0,4.2,132.0,5.9,'11111222,11111222,11111222' 
TCOON,ioos:station:TCOON:518:1,2013-10-01T20:12:00Z,29.5150,-94.5133,0.0,4.9,147.0,6.3,'11111222,11111222,11111222' 
TCOON,ioos:station:TCOON:518:1,2013-10-01T20:18:00Z,29.5150,-94.5133,0.0,5.2,152.0,6.4,'11111222,11111222,11111222' 
TCOON,ioos:station:TCOON:518:1,2013-10-01T20:24:00Z,29.5150,-94.5133,0.0,4.8,161.0,6.8,'11111222,11111222,11111222' 